EW3212 Weather Reports


time (UTC)temp
C
wind
direction
speed
KPH
gust
KPH
rain 1hr
cm
rain 24hr
cm
rain mn
cm
humidity
%
barometer
mb
20260507023358 8 298 0.0 0.0 0.00 0.76 0.69 74 1014.2
20260507022336 8 298 0.0 0.0 0.00 0.81 0.69 73 1014.0
20260507021353 8 298 0.0 0.0 0.00 0.86 0.69 72 1014.0
20260507020345 9 298 0.0 0.0 0.00 0.91 0.69 70 1013.8
20260507014134 10 298 0.0 0.0 0.00 0.97 0.69 67 1013.5
20260507013116 11 298 0.0 0.0 0.00 0.99 0.69 65 1013.5
20260507012131 11 298 0.0 0.0 0.00 1.09 0.69 62 1013.5
20260507011058 12 298 0.0 0.0 0.00 1.17 0.69 60 1013.5
20260507004932 12 298 0.0 0.0 0.00 1.32 0.69 56 1013.3
20260507003923 12 298 0.0 0.0 0.00 1.32 0.69 54 1013.0
20260507002923 12 298 0.0 0.0 0.00 1.37 0.69 50 1012.8
20260507001854 13 298 0.0 0.0 0.00 1.42 0.69 50 1012.8
20260507000832 13 298 0.0 0.0 0.00 1.47 0.69 49 1012.7
20260506235800 13 298 0.0 0.0 0.00 1.50 0.69 49 1012.7
20260506232521 13 345 0.0 0.0 0.00 1.60 0.69 47 1012.6
20260506231454 14 32 0.0 0.0 0.00 1.63 0.69 46 1012.5
20260506230512 14 283 0.0 0.0 0.00 1.70 0.69 46 1012.6
20260506225512 14 281 0.0 0.0 0.00 1.73 0.69 46 1012.7
20260506224534 14 45 0.0 0.0 0.00 1.80 0.69 46 1013.0
20260506223525 14 255 0.0 0.0 0.00 1.93 0.69 47 1012.9
20260506222514 14 255 0.0 0.0 0.00 1.96 0.69 45 1013.0
20260506221523 14 254 0.0 0.0 0.00 1.96 0.69 46 1013.1
20260506220514 14 288 0.0 0.0 0.00 2.01 0.69 45 1013.0
20260506214407 14 243 0.0 0.0 0.00 2.06 0.69 43 1012.8
20260506213423 14 253 0.0 0.0 0.00 2.06 0.69 42 1012.7
20260506212414 15 227 0.0 0.0 0.00 2.06 0.69 43 1012.6
20260506211356 15 257 0.0 3.2 0.00 2.06 0.69 43 1012.4
20260506210347 14 259 0.0 0.0 0.00 2.08 0.69 47 1012.5
20260506205318 14 271 0.0 0.0 0.00 2.11 0.69 46 1012.3
20260506204323 14 295 0.0 0.0 0.00 2.13 0.69 46 1012.4
20260506203255 15 245 0.0 3.2 0.00 2.18 0.69 45 1012.4
20260506201113 15 298 0.0 0.0 0.00 2.26 0.69 45 1012.4
20260506200047 15 273 0.0 0.0 0.00 2.36 0.69 46 1012.2
20260506195030 15 252 0.0 0.0 0.00 2.36 0.69 45 1012.1
20260506194022 15 232 0.0 0.0 0.00 2.36 0.69 47 1012.1
20260506193039 15 252 0.0 0.0 0.00 2.36 0.69 49 1012.1
20260506192059 15 30 0.0 0.0 0.00 2.36 0.69 45 1012.2
20260506191113 15 231 0.0 0.0 0.00 2.36 0.69 46 1012.2
20260506190116 15 251 0.0 0.0 0.00 2.36 0.69 45 1012.2
20260506185141 16 265 0.0 0.0 0.00 2.36 0.69 44 1012.1
20260506184115 16 265 0.0 0.0 0.00 2.36 0.69 44 1012.0
20260506182027 16 271 0.0 0.0 0.00 2.36 0.69 47 1012.0
20260506180958 16 306 0.0 0.0 0.00 2.36 0.69 48 1012.1
20260506174922 16 232 0.0 0.0 0.00 2.36 0.69 48 1012.3
20260506171635 15 25 0.0 0.0 0.00 2.36 0.69 52 1012.4
20260506165558 16 78 0.0 0.0 0.00 2.36 0.69 51 1012.3
20260506164547 16 253 0.0 0.0 0.00 2.36 0.69 51 1012.1
20260506163548 15 277 0.0 0.0 0.00 2.36 0.69 52 1012.1
20260506162532 15 259 0.0 0.0 0.00 2.36 0.69 50 1012.3
20260506161546 15 262 0.0 0.0 0.00 2.36 0.69 54 1012.4
20260506160552 15 261 0.0 0.0 0.00 2.36 0.69 55 1012.2
20260506154432 14 252 0.0 0.0 0.00 2.36 0.69 58 1012.4
20260506153429 13 259 0.0 0.0 0.00 2.36 0.69 58 1012.2
20260506152412 13 275 0.0 0.0 0.00 2.36 0.69 58 1011.8
20260506151412 13 248 0.0 0.0 0.00 2.36 0.69 63 1011.6
20260506150415 12 347 0.0 0.0 0.00 2.36 0.69 66 1011.5
20260506145414 12 42 0.0 0.0 0.00 2.36 0.69 65 1011.3
20260506144340 12 252 0.0 0.0 0.00 2.36 0.69 65 1011.6
20260506141131 10 290 0.0 0.0 0.00 2.36 0.69 73 1011.4
20260506140117 10 272 0.0 0.0 0.00 2.36 0.69 74 1011.3
20260506133908 9 303 0.0 0.0 0.00 2.34 0.66 78 1011.0
20260506132909 9 291 0.0 0.0 0.00 2.34 0.66 79 1010.8
20260506131921 8 291 0.0 0.0 0.00 2.34 0.66 80 1010.8
20260506130902 8 294 0.0 0.0 0.00 2.34 0.66 81 1010.7
20260506124735 8 300 0.0 0.0 0.00 2.34 0.66 83 1010.2
20260506123758 8 297 0.0 0.0 0.00 2.34 0.66 83 1010.5
20260506122757 8 296 0.0 0.0 0.00 2.34 0.66 83 1010.5
20260506121743 8 298 0.0 0.0 0.00 2.34 0.66 84 1010.3
20260506120734 7 298 0.0 0.0 0.00 2.34 0.66 84 1009.9
20260506115757 7 298 0.0 0.0 0.00 2.34 0.66 84 1009.5
20260506114804 7 296 0.0 0.0 0.00 2.34 0.66 84 1009.2
20260506112628 7 282 0.0 0.0 0.00 2.34 0.66 84 1009.1
20260506111603 7 282 0.0 0.0 0.00 2.34 0.66 84 1009.4
20260506105436 7 355 0.0 0.0 0.00 2.34 0.66 85 1008.6
20260506104416 7 355 0.0 0.0 0.00 2.36 0.66 85 1008.3
20260506103410 7 0 0.0 0.0 0.00 2.36 0.66 85 1007.9
20260506102410 7 10 0.0 0.0 0.00 2.39 0.66 86 1008.1
20260506100258 7 27 0.0 0.0 0.00 2.44 0.66 86 1008.0
20260506095236 7 26 0.0 0.0 0.00 2.46 0.66 86 1007.9
20260506094252 7 27 0.0 0.0 0.00 2.46 0.66 86 1007.5
20260506093218 7 27 0.0 0.0 0.00 2.49 0.66 86 1006.9
20260506092143 7 27 0.0 0.0 0.00 2.51 0.66 86 1007.1
20260506091126 7 25 0.0 0.0 0.00 2.57 0.66 86 1007.4
20260506090148 7 25 0.0 0.0 0.00 2.59 0.66 86 1007.2
20260506085114 7 45 0.0 0.0 0.00 2.59 0.66 86 1007.2
20260506084118 7 32 0.0 0.0 0.00 2.59 0.66 86 1007.2
20260506083052 7 29 0.0 0.0 0.00 2.59 0.66 86 1007.3
20260506080936 7 300 0.0 0.0 0.00 2.57 0.64 86 1007.2
20260506072707 8 5 0.0 0.0 0.00 2.46 0.53 86 1007.1
20260506071719 8 17 0.0 0.0 0.00 2.46 0.53 86 1007.0
20260506070719 8 208 0.0 0.0 0.00 2.46 0.53 86 1006.7
20260506061738 8 32 0.0 0.0 0.25 2.41 0.48 86 1006.5
20260506060749 8 5 0.0 0.0 0.33 2.36 0.43 86 1006.7
20260506050519 10 310 0.0 0.0 0.25 2.11 0.15 86 1007.0
20260506044434 10 22 0.0 0.0 0.10 2.06 0.13 86 1006.6
20260506043449 10 310 0.0 0.0 0.23 2.03 0.10 86 1006.4
20260506042416 10 300 0.0 0.0 0.20 1.98 0.08 86 1006.7
20260506041357 10 346 0.0 0.0 0.00 1.93 0.03 86 1006.7
20260506040402 10 28 0.0 0.0 0.00 1.93 0.00 86 1006.4
20260506035332 10 34 0.0 0.0 0.00 1.93 1.93 86 1006.2
20260506034350 10 32 0.0 0.0 0.00 1.93 1.93 86 1006.1
20260506031313 10 91 0.0 0.0 0.00 1.88 1.91 86 1006.2
20260506025135 11 322 0.0 0.0 0.15 1.88 1.91 85 1006.6
20260506024110 11 342 0.0 0.0 0.15 1.85 1.88 85 1006.9